Back to catalog

STARLINK-32726

AliveCommunicationsVLEO
NORAD 62446·PAYLOAD·🇺🇸 United States

Launched Dec 29, 2024 from Vandenberg Space Force Base

Loading…

Next Passes (next 24 hours)

TLE

FreshSource: CelesTrak SupGP

Epoch: Sep 14, 2026, 21:18 UTC

1 62446C 24251Q   26257.88798611 -.00032883  00000+0 -97117-3 0  2576
2 62446  53.1575 173.7274 0001292  89.4921 304.3969 15.34418995    12

Track STARLINK-32726 in real time with AllMySat

Download on the App Store